User: anonymous   Login
Location: Libas
(9.8833°N, 125.9833°E)
Time: 14:07:50
(UTC+00:00)
Language:

Cosmos 1302 Rocket - Orbit

View from above orbital plane
View from above orbital plane
View from above satellite
View from above satellite

Ground track
Ground track

The orbit data is extracted from the following two-line orbital elements,

1 12792U 81084B   21016.82288876  .00000034  00000-0  20104-4 0  9999
2 12792  74.0298 144.2647 0012551 113.6968 246.5504 14.37606233 62929
Epoch (UTC): 16 January 2021 19:44:57
Eccentricity: 0.0012551
inclination: 74.0298°
perigee height: 757 km
apogee height: 775 km
right ascension of ascending node: 144.2647°
argument of perigee: 113.6968°
revolutions per day: 14.37606233
mean anomaly at epoch: 246.5504°
orbit number at epoch: 6292

The dashed part of the orbit path shows where the satellite is in the earth's shadow,  

DLR